To NAV CANADA Home Page Login to a new session Search on AWWS site Feedback and Comments Disclaimer Vers la page française équivalente Tips FAQ What's new on the site To the Forecasts and Observations / NOTAM section To "File a Flight Plan" website Publications and other links Update of the User's profile FIC Telephone Numbers My Weather Data Folder Route Weather Data Regional Weather Data Local Weather Data To the Forecasts and Observations / NOTAM section
Request Generated 03/23/2017 at 00:19:40 UTC . Weather information available at that time is displayed.

METAR/TAF

BERENS RIVER/MB    (show WxCam)

LWIS CYBV 230000Z AUTO 16008KT M02/M12 A3011=
LWIS CYBV 222300Z AUTO 16011KT M02/M14 A3014=
LWIS CYBV 222200Z AUTO 17011G22KT M02/M14 A3017=

CYBV - No TAF is issued for this station

Your time UTC time
Weather data provided by Environment Canada and NAV CANADA